Bloomington, IL

2:07 PM CDT on September 25, 2016 (GMT -0500)
Central Ill Regional

Weather History for KBMI - April, 2014

Change the Weather History Date:

Sunday, April 13, 2014

  Actual Average Record
Temperature  
Mean Temperature 62 °F -  
Max Temperature 68 °F 0 °F 82 °F (2006)
Min Temperature 57 °F - 26 °F (2004)
Degree Days  
Heating Degree Days 2    
Growing Degree Days 12 (Base 50)    
Moisture  
Dew Point 56 °F    
Average Humidity 81    
Maximum Humidity 94    
Minimum Humidity 70    
Precipitation  
Precipitation 0.17 in - - ()
Sea Level Pressure  
Sea Level Pressure 29.63 in    
Wind  
Wind Speed 20 mph (SSW)    
Max Wind Speed 41 mph    
Max Gust Speed 53 mph    
Visibility 8 miles    
Events Rain , Thunderstorm    
Averages and records for this station are not official NWS values.
T = Trace of Precipitation, MM = Missing Value Source: NWS Daily Summary

Daily Weather History Graph

Daily Weather History Graph

Search for Another Location

Airport or City:

Trip Planner

Search our weather history database for the weather conditions in past years. The results will help you decide how hot, cold, wet, or windy it might be!

Date:

Astronomy

Apr. 13, 2014 Rise Set
Actual Time 6:20 AM CDT 7:32 PM CDT
Civil Twilight 5:52 AM CDT 8:00 PM CDT
Nautical Twilight 5:18 AM CDT 8:34 PM CDT
Astronomical Twilight 4:43 AM CDT 9:10 PM CDT
Moon 6:10 PM CDT (4/13) 5:19 AM CDT (4/13)
Length of Visible Light 14h 08m
Length of Day
13h 12m
Waxing Gibbous, 97% of the Moon is Illuminated
Apr 13
Waxing Gibbous
Apr 15
Full
Apr 22
Last Quarter
Apr 29
New
May 6
First Quarter

Hourly Weather History & Observations

Time (CDT) Temp. Dew Point Humidity Pressure Visibility Wind Dir Wind Speed Gust Speed Precip Events Conditions
12:56 AM 63.0 °F 54.0 °F 72% 29.70 in 10.0 mi SSW 24.2 mph 28.8 mph N/A   Clear
1:56 AM 63.0 °F 52.9 °F 70% 29.73 in 10.0 mi SSW 20.7 mph - N/A   Clear
2:56 AM 61.9 °F 52.9 °F 72% 29.72 in 10.0 mi SSW 19.6 mph - N/A   Clear
3:56 AM 61.0 °F 52.9 °F 75% 29.70 in 10.0 mi SSW 17.3 mph - N/A   Mostly Cloudy
4:56 AM 61.9 °F 52.9 °F 72% 29.70 in 10.0 mi SSW 15.0 mph - N/A   Scattered Clouds
5:56 AM 61.0 °F 52.9 °F 75% 29.72 in 10.0 mi SSW 12.7 mph - N/A   Mostly Cloudy
6:56 AM 59.9 °F 52.9 °F 78% 29.75 in 10.0 mi SW 10.4 mph - N/A   Overcast
7:56 AM 61.0 °F 54.0 °F 78% 29.75 in 10.0 mi SSW 8.1 mph - N/A   Overcast
8:56 AM 63.9 °F 54.9 °F 72% 29.75 in 10.0 mi SSW 13.8 mph - N/A   Clear
9:56 AM 64.9 °F 54.9 °F 70% 29.76 in 10.0 mi SSW 17.3 mph - N/A   Mostly Cloudy
10:56 AM 64.9 °F 54.9 °F 70% 29.77 in 10.0 mi SSW 16.1 mph - N/A   Mostly Cloudy
11:56 AM 61.0 °F 55.9 °F 83% 29.77 in 6.0 mi SSW 17.3 mph 25.3 mph 0.00 in Rain Light Rain
12:56 PM 59.9 °F 56.8 °F 90% 29.70 in 8.0 mi WNW 3.5 mph - 0.02 in Rain Light Rain
1:56 PM 64.9 °F 59.9 °F 84% 29.70 in 10.0 mi South 23.0 mph - 0.00 in   Overcast
2:15 PM 68.0 °F 60.8 °F 78% 29.70 in 10.0 mi SSW 26.5 mph - N/A   Mostly Cloudy
2:56 PM 66.9 °F 59.0 °F 76% 29.66 in 10.0 mi South 19.6 mph 27.6 mph N/A   Overcast
3:56 PM 64.9 °F 59.9 °F 84% 29.64 in 6.0 mi South 16.1 mph - 0.00 in Rain Light Rain
4:35 PM 64.4 °F 59.0 °F 83% 29.63 in 10.0 mi South 21.9 mph - 0.00 in Thunderstorm Overcast
4:49 PM 64.4 °F 59.0 °F 83% 29.63 in 1.8 mi South 23.0 mph - 0.02 in Rain , Thunderstorm Light Thunderstorms and Rain
4:56 PM 63.0 °F 59.0 °F 87% 29.60 in 5.0 mi South 25.3 mph 29.9 mph 0.04 in Rain Light Rain
5:56 PM 63.0 °F 59.0 °F 87% 29.56 in 10.0 mi South 24.2 mph 31.1 mph 0.01 in   Mostly Cloudy
6:56 PM 63.0 °F 59.0 °F 87% 29.57 in 7.0 mi South 23.0 mph 29.9 mph 0.00 in Rain Light Rain
7:56 PM 63.0 °F 57.9 °F 84% 29.54 in 10.0 mi South 20.7 mph - 0.02 in Rain Light Rain
8:56 PM 63.0 °F 57.9 °F 84% 29.50 in 10.0 mi South 24.2 mph 28.8 mph 0.00 in   Mostly Cloudy
9:20 PM 64.4 °F 57.2 °F 77% 29.51 in 10.0 mi South 25.3 mph 36.8 mph N/A   Mostly Cloudy
9:56 PM 63.9 °F 57.9 °F 81% 29.47 in 10.0 mi South 34.5 mph 52.9 mph N/A   Mostly Cloudy
10:17 PM 62.6 °F 57.2 °F 82% 29.48 in 6.0 mi South 41.4 mph 52.9 mph 0.01 in Rain Light Rain
10:40 PM 60.8 °F 55.4 °F 82% 29.49 in 3.0 mi South 34.5 mph 39.1 mph 0.05 in Rain Light Rain
10:48 PM 59.0 °F 55.4 °F 88% 29.49 in 4.0 mi South 27.6 mph 39.1 mph 0.06 in Rain Light Rain
10:56 PM 57.9 °F 55.9 °F 93% 29.49 in 4.0 mi South 28.8 mph 39.1 mph 0.08 in Rain Light Rain
11:07 PM 57.2 °F 55.4 °F 94% 29.51 in 9.0 mi SSW 24.2 mph - 0.00 in Rain Light Rain
11:56 PM 59.0 °F 55.9 °F 90% 29.46 in 10.0 mi South 23.0 mph - 0.00 in   Scattered Clouds